[[{"header":{"parameterUnit":"m.s-1","parameterCategory":1,"la1":30.2991,"la2":30.254,"lo1":-89.0895,"lo2":-89.0444,"dy":0.0017,"dx":0.0017,"nx":28,"ny":28,"refTime":"2023-08-02T03:00:00:Z","depth":0,"parameterNumber":2,"parameterNumberName":"U-component_of_WINDS"},"data":[0,0,0,0,0,0,0,0,0,0,0,0,0,0,0,0,0,0,0,0,0,0,0,0,0,0,0,0,0,0,0,0,0,0,0,0,0,0,0,0,0,0,0,0,0,0,0,0,0,0,0,0,0,0,0,0,0,0,1.3582,1.3583,0,1.3632,1.3633,1.3633,1.3627,1.3626,1.3625,1.3624,1.3675,1.3677,1.3679,0,0,0,0,0,0,0,0,0,0,0,0,0,1.3481,1.3483,1.3582,1.3583,1.3584,1.3632,1.3633,1.3634,1.3627,1.3626,1.3625,1.3624,1.3674,1.3677,1.3679,0,0,0,0,0,0,0,0,0,0,0,0,0,1.3527,1.3484,1.3582,1.3586,1.3587,1.3632,1.3633,1.3634,1.3627,1.3626,1.3625,1.3623,1.3673,1.3676,1.3679,1.3724,0,0,1.3689,1.369,0,0,0,0,0,0,0,0,1.3525,1.3531,1.3585,1.3586,1.3587,1.3622,1.3616,1.3664,1.3627,1.3612,1.3624,1.3623,1.3658,1.3662,1.3675,1.3726,1.3728,1.3689,1.3691,1.3693,1.3694,0,0,0,0,0,0,0,1.3522,1.3529,1.3602,1.3586,1.3587,1.3585,1.359,1.3625,1.3641,1.3613,1.3613,1.3619,1.3658,1.3671,1.3676,1.3729,1.3689,1.3692,1.3694,1.3695,1.382,1.3821,0,0,0,0,0,0,1.3517,1.3526,1.36,1.3604,1.3552,1.3588,1.3594,1.3612,1.3641,1.3644,1.362,1.3618,1.3667,1.3672,1.3677,1.3731,1.3693,1.3696,1.3697,1.3818,1.382,1.3821,0,0,0,0,0,0,1.3515,1.3524,1.3598,1.3565,1.3574,1.3591,1.3611,1.3614,1.3627,1.3646,1.3649,1.363,1.3666,1.3673,1.3712,1.3733,1.3697,1.37,1.3816,1.3819,1.3821,1.3838,0,0,0,0,0,0,1.3512,1.3523,1.354,1.3565,1.3576,1.3633,1.3613,1.3615,1.3632,1.3631,1.3656,1.3659,1.3665,1.3708,1.3715,1.3736,1.3702,1.3815,1.3817,1.382,1.3836,1.3841,1.3845,0,0,0,0,0,1.3509,1.3543,1.3541,1.355,1.3598,1.3634,1.364,1.3646,1.3634,1.3651,1.3664,1.3659,1.3729,1.3712,1.372,1.3743,1.3813,1.3817,1.382,1.3834,1.384,1.3845,0,0,0,0,0,0,1.352,1.3546,1.3545,1.3588,1.3609,1.3633,1.3654,1.3652,1.3677,1.3674,1.3681,1.3687,1.3727,1.3739,1.3719,1.3787,1.377,1.3775,1.3778,1.3783,1.3788,1.3784,1.3705,0,0,0,0,0,1.3527,1.3554,1.3576,1.3613,1.3623,1.3637,1.3653,1.3656,1.3678,1.3687,1.3702,1.3723,1.375,1.3767,1.3793,1.3838,1.3844,1.3858,1.3862,1.3866,1.387,1.3894,1.3901,1.3832,1.3832,1.3832,0,0,1.3543,1.3561,1.3578,1.3615,1.3632,1.366,1.3644,1.3675,1.3695,1.3691,1.3729,1.3741,1.3765,1.3807,1.3827,1.3819,1.389,1.387,1.3873,1.3875,1.3898,1.3905,1.3911,1.3834,1.3833,1.3833,0,0,1.3585,1.3602,1.3634,1.3651,1.3676,1.3685,1.3693,1.3718,1.3725,1.3764,1.3761,1.3786,1.3833,1.385,1.3865,1.3915,1.3911,1.3923,1.3946,1.397,1.3975,1.398,1.3998,1.4004,1.3927,1.3927,1.3927,0,1.3602,1.3644,1.3651,1.3681,1.3698,1.3696,1.3729,1.3745,1.3777,1.3788,1.3779,1.3837,1.3853,1.39,1.3912,1.3924,1.3933,1.392,1.3974,1.3979,1.3984,1.4,1.4007,1.3929,1.3929,1.3928,1.3928,0,1.3662,1.3691,1.3714,1.3746,1.3765,1.3797,1.3808,1.3827,1.3829,1.3839,1.3879,1.3898,1.3928,1.3939,1.3941,1.3986,1.398,1.3973,1.3955,1.3991,1.4007,1.4014,1.393,1.393,1.393,1.3929,0,0,1.3712,1.3748,1.3756,1.377,1.3798,1.3821,1.3853,1.3882,1.3898,1.3921,1.3947,1.3987,1.398,1.3997,1.4001,1.4022,1.406,1.4012,1.4012,1.402,1.411,1.4115,1.4123,1.4059,1.406,1.4061,1.4108,0,1.3757,1.3812,1.382,1.3869,1.3896,1.3895,1.3923,1.3943,1.3954,1.3978,1.399,1.4018,1.4007,1.4017,1.4038,1.4051,1.4078,1.4048,1.4083,1.4084,1.4076,1.4131,1.4136,1.418,1.4114,1.4116,1.4116,0,1.3816,1.3841,1.3893,1.3917,1.3929,1.3954,1.3981,1.4005,1.4028,1.4034,1.4054,1.4055,1.4088,1.407,1.4115,1.4094,1.4109,1.4118,1.412,1.4122,1.4102,1.4135,1.4194,1.4201,1.4126,1.4125,1.4125,0,1.3847,1.3893,1.393,1.3942,1.3972,1.3989,1.4003,1.4025,1.4042,1.4066,1.4078,1.4106,1.4121,1.4142,1.4152,1.4138,1.4196,1.4179,1.4202,1.4202,1.4213,1.4212,1.4276,1.4225,1.4224,1.4224,1.4224,0,1.3895,1.3927,1.3944,1.3967,1.4002,1.4011,1.4046,1.4059,1.4078,1.4103,1.4105,1.4128,1.414,1.4165,1.4173,1.4209,1.4216,1.4221,1.4223,1.4221,1.422,1.423,1.4227,1.4226,1.4226,1.4225,1.4225,0,1.3935,1.3947,1.3988,1.4013,1.402,1.4045,1.4067,1.4089,1.41,1.4132,1.4139,1.4156,1.4186,1.4198,1.4235,1.424,1.4281,1.4281,1.4273,1.4274,1.4296,1.4293,1.4367,1.4377,1.432,1.432,1.4321,0,1.3965,1.3989,1.4017,1.4034,1.4048,1.4075,1.4093,1.4103,1.4122,1.415,1.4169,1.4199,1.4223,1.4271,1.4287,1.4315,1.4315,1.4339,1.4319,1.4316,1.4314,1.4313,1.4315,1.4342,1.4343,1.4343,1.4343,0,1.4016,1.4021,1.4047,1.4075,1.4097,1.4119,1.4141,1.4155,1.4169,1.4189,1.422,1.4239,1.4277,1.4307,1.4336,1.4349,1.4349,1.435,1.4356,1.4354,1.4349,1.4351,1.4283,1.4348,1.4347,1.4347,1.4347,1.4347,1.4051,1.4073,1.4096,1.4125,1.4143,1.4163,1.4185,1.4199,1.4225,1.4257,1.4261,1.4294,1.4317,1.4356,1.4371,1.4397,1.4391,1.44,1.4403,1.4405,1.4406,1.4345,1.4402,1.4402,1.4402,1.4402,1.4402,0,1.4102,1.4117,1.4144,1.4175,1.4197,1.4196,1.422,1.4239,1.4268,1.429,1.4314,1.4349,1.4378,1.4397,1.4426,1.4443,1.4444,1.445,1.4449,1.4452,1.441,1.4401,1.445,1.445,1.445,1.445,1.445,1.4449,1.4131,1.4168,1.4176,1.4221,1.4236,1.4269,1.4283,1.4302,1.4319,1.4359,1.4383,1.4395,1.4415,1.4446,1.4473,1.4477,1.4488,1.4495,1.4499,1.446,1.4455,1.445,1.4442,1.4497,1.4498,1.4538,1.4539,1.4539]},{"header":{"parameterUnit":"m.s-1","parameterCategory":1,"la1":30.2991,"la2":30.254,"lo1":-89.0895,"lo2":-89.0444,"dy":0.0017,"dx":0.0017,"nx":28,"ny":28,"refTime":"2023-08-02T03:00:00:Z","depth":0,"parameterNumber":3,"parameterNumberName":"V-component_of_WINDS"},"data":[0,0,0,0,0,0,0,0,0,0,0,0,0,0,0,0,0,0,0,0,0,0,0,0,0,0,0,0,0,0,0,0,0,0,0,0,0,0,0,0,0,0,0,0,0,0,0,0,0,0,0,0,0,0,0,0,0,0,-0.3143,-0.3144,0,-0.3252,-0.3253,-0.3254,-0.3317,-0.3317,-0.3317,-0.3317,-0.343,-0.3433,-0.3435,0,0,0,0,0,0,0,0,0,0,0,0,0,-0.299,-0.2993,-0.3143,-0.3144,-0.3146,-0.3252,-0.3253,-0.3255,-0.3317,-0.3317,-0.3317,-0.3318,-0.3429,-0.3432,-0.3436,0,0,0,0,0,0,0,0,0,0,0,0,0,-0.3073,-0.2993,-0.3143,-0.3189,-0.3195,-0.3251,-0.3253,-0.3255,-0.3317,-0.3317,-0.3317,-0.3318,-0.3428,-0.3432,-0.3436,-0.3455,0,0,-0.3449,-0.3451,0,0,0,0,0,0,0,0,-0.3069,-0.3079,-0.3181,-0.3186,-0.3192,-0.3271,-0.3241,-0.3322,-0.3317,-0.327,-0.3318,-0.3318,-0.3377,-0.3385,-0.3405,-0.346,-0.3465,-0.3449,-0.3452,-0.3454,-0.3455,0,0,0,0,0,0,0,-0.3063,-0.3075,-0.3186,-0.3183,-0.3189,-0.3205,-0.3218,-0.3256,-0.332,-0.3274,-0.3279,-0.3291,-0.338,-0.3401,-0.3408,-0.3467,-0.3449,-0.3453,-0.3455,-0.3457,-0.3544,-0.3544,0,0,0,0,0,0,-0.3049,-0.3069,-0.3183,-0.3189,-0.313,-0.3208,-0.3221,-0.3245,-0.332,-0.3332,-0.3291,-0.3294,-0.3394,-0.3403,-0.3412,-0.344,-0.3454,-0.3457,-0.346,-0.3544,-0.3544,-0.3544,0,0,0,0,0,0,-0.3046,-0.3059,-0.3178,-0.3131,-0.3147,-0.321,-0.3236,-0.3247,-0.3268,-0.3333,-0.3344,-0.33,-0.3394,-0.3406,-0.3444,-0.3445,-0.3459,-0.3463,-0.3544,-0.3544,-0.3544,-0.3494,0,0,0,0,0,0,-0.3041,-0.3057,-0.3065,-0.313,-0.3149,-0.3207,-0.3236,-0.3249,-0.3275,-0.328,-0.3344,-0.3355,-0.3395,-0.3437,-0.3448,-0.3451,-0.3466,-0.3544,-0.3544,-0.3544,-0.3496,-0.3492,-0.3489,0,0,0,0,0,-0.3036,-0.3047,-0.3065,-0.3078,-0.316,-0.3207,-0.3218,-0.3264,-0.3275,-0.3283,-0.3325,-0.3353,-0.3443,-0.3441,-0.3453,-0.3457,-0.3545,-0.3544,-0.3544,-0.3498,-0.3493,-0.3489,0,0,0,0,0,0,-0.298,-0.3056,-0.3077,-0.3109,-0.3151,-0.3218,-0.323,-0.3257,-0.3297,-0.33,-0.3355,-0.3369,-0.3401,-0.3433,-0.343,-0.348,-0.3497,-0.3499,-0.3458,-0.3454,-0.345,-0.3442,-0.347,0,0,0,0,0,-0.2971,-0.3002,-0.3068,-0.309,-0.311,-0.3166,-0.3188,-0.322,-0.3265,-0.3284,-0.3328,-0.3371,-0.341,-0.3433,-0.3472,-0.3501,-0.3516,-0.351,-0.3506,-0.3503,-0.3504,-0.3523,-0.3521,-0.3542,-0.3542,-0.3542,0,0,-0.2953,-0.2999,-0.3016,-0.308,-0.3116,-0.3148,-0.3181,-0.3213,-0.3237,-0.3289,-0.3327,-0.3361,-0.3413,-0.3447,-0.3464,-0.3474,-0.3502,-0.3502,-0.3499,-0.3503,-0.3522,-0.352,-0.3518,-0.3542,-0.3542,-0.3542,0,0,-0.2938,-0.2976,-0.2999,-0.3034,-0.3088,-0.3126,-0.3131,-0.3193,-0.3218,-0.3257,-0.3296,-0.3326,-0.339,-0.3426,-0.3453,-0.3452,-0.348,-0.3463,-0.3444,-0.3461,-0.346,-0.3459,-0.3459,-0.3458,-0.3464,-0.3463,-0.3463,0,-0.291,-0.2959,-0.3007,-0.3037,-0.3065,-0.3112,-0.3136,-0.3169,-0.3233,-0.3251,-0.3261,-0.3343,-0.3382,-0.3425,-0.3424,-0.3444,-0.3453,-0.3456,-0.3456,-0.3455,-0.3455,-0.3456,-0.3455,-0.3461,-0.3461,-0.3462,-0.3462,0,-0.2922,-0.2955,-0.2967,-0.3028,-0.3057,-0.3083,-0.3136,-0.3159,-0.3188,-0.3224,-0.3264,-0.3312,-0.3361,-0.3374,-0.3402,-0.3421,-0.3426,-0.3445,-0.3464,-0.345,-0.3451,-0.3452,-0.3458,-0.3458,-0.3459,-0.346,0,0,-0.2874,-0.2961,-0.2964,-0.2992,-0.3056,-0.3083,-0.3113,-0.316,-0.318,-0.3222,-0.3249,-0.3302,-0.3321,-0.3351,-0.3384,-0.3399,-0.3396,-0.3418,-0.342,-0.3412,-0.342,-0.3405,-0.3404,-0.3415,-0.3415,-0.3415,-0.3416,0,-0.2868,-0.2923,-0.2967,-0.3005,-0.3037,-0.3083,-0.3109,-0.315,-0.3185,-0.3218,-0.3257,-0.3294,-0.3315,-0.3334,-0.3351,-0.3392,-0.3398,-0.3393,-0.344,-0.3442,-0.3426,-0.3405,-0.3389,-0.3387,-0.3416,-0.3417,-0.3417,0,-0.2868,-0.2909,-0.295,-0.3011,-0.3026,-0.3048,-0.3096,-0.3126,-0.3175,-0.32,-0.3233,-0.3268,-0.3301,-0.3316,-0.3364,-0.336,-0.3382,-0.3405,-0.3406,-0.3413,-0.3428,-0.3411,-0.3387,-0.3387,-0.3418,-0.3418,-0.3418,0,-0.283,-0.2895,-0.2928,-0.2951,-0.3022,-0.3037,-0.3067,-0.3117,-0.3143,-0.3185,-0.3202,-0.3247,-0.3272,-0.3307,-0.3353,-0.336,-0.3396,-0.3415,-0.3418,-0.3416,-0.3423,-0.3422,-0.3403,-0.3437,-0.3437,-0.3437,-0.3437,0,-0.2819,-0.2842,-0.2912,-0.2932,-0.296,-0.3011,-0.3037,-0.3072,-0.3115,-0.3144,-0.3186,-0.3212,-0.3271,-0.3305,-0.3341,-0.3375,-0.3386,-0.3407,-0.3417,-0.3403,-0.3401,-0.3419,-0.342,-0.3437,-0.3437,-0.3437,-0.3437,0,-0.278,-0.2828,-0.2867,-0.2931,-0.2948,-0.2966,-0.3021,-0.3043,-0.308,-0.3116,-0.3127,-0.3186,-0.3227,-0.3276,-0.3334,-0.3358,-0.3389,-0.3403,-0.3373,-0.3378,-0.3378,-0.3378,-0.337,-0.3372,-0.3404,-0.3403,-0.3403,0,-0.277,-0.2789,-0.2856,-0.2877,-0.2907,-0.2941,-0.2968,-0.3019,-0.3045,-0.3103,-0.3118,-0.3162,-0.3201,-0.3265,-0.3313,-0.3357,-0.3373,-0.3367,-0.338,-0.3366,-0.3373,-0.3371,-0.3374,-0.3364,-0.3363,-0.3363,-0.3362,0,-0.2747,-0.277,-0.2806,-0.2851,-0.2882,-0.292,-0.296,-0.2976,-0.3035,-0.3063,-0.3105,-0.3135,-0.3194,-0.3238,-0.3288,-0.3321,-0.3351,-0.3358,-0.3361,-0.3348,-0.3329,-0.334,-0.3364,-0.3358,-0.3358,-0.3359,-0.3359,-0.3359,-0.2723,-0.2742,-0.2792,-0.2832,-0.2867,-0.2903,-0.2927,-0.2967,-0.3003,-0.3055,-0.3083,-0.3125,-0.3174,-0.3245,-0.3276,-0.3311,-0.3321,-0.3326,-0.3327,-0.3327,-0.3323,-0.3323,-0.332,-0.332,-0.332,-0.3321,-0.3321,0,-0.2702,-0.2736,-0.2772,-0.2827,-0.2858,-0.2884,-0.293,-0.2955,-0.2991,-0.3034,-0.3071,-0.312,-0.3163,-0.3214,-0.3261,-0.3278,-0.3294,-0.3289,-0.3288,-0.3295,-0.3311,-0.3304,-0.3276,-0.3276,-0.3276,-0.3276,-0.3276,-0.3276,-0.2695,-0.2729,-0.2758,-0.281,-0.2845,-0.2886,-0.291,-0.2944,-0.2978,-0.3031,-0.3067,-0.31,-0.3147,-0.3197,-0.3238,-0.3252,-0.3267,-0.3258,-0.3276,-0.329,-0.3294,-0.3298,-0.3291,-0.3261,-0.3261,-0.3258,-0.3258,-0.3258]}]]